Ely, NV

3:39 PM PDT on April 25, 2017 (GMT -0700)
Ely

Weather History for KELY - November, 2012

Change the Weather History Date:

Sunday, November 11, 2012

  Actual Average Record
Temperature  
Mean Temperature 22 °F 36 °F  
Max Temperature 32 °F 51 °F 73 °F (1989)
Min Temperature 12 °F 21 °F 2 °F (2015)
Degree Days  
Heating Degree Days 43 29  
Month to date heating degree days 273 300  
Since 1 July heating degree days 945 1228  
Cooling Degree Days 0 0  
Month to date cooling degree days 0 0  
Year to date cooling degree days 314 218  
Moisture  
Dew Point 12 °F    
Average Humidity 66    
Maximum Humidity 88    
Minimum Humidity 43    
Precipitation  
Precipitation T in 0.02 in 1.01 in (1985)
Month to date precipitation 0.47 0.30  
Year to date precipitation 10.52 8.77  
Snow  
Snow 0.20 in 0.20 in 11.70 in (1985)
Month to date snowfall 7.5 1.9  
Since 1 July snowfall 10.0 5.3  
Since 1 September snowfall 10.0 5.3  
Snow Depth 4.00 in    
Sea Level Pressure  
Sea Level Pressure 30.35 in    
Wind  
Wind Speed 5 mph (West)    
Max Wind Speed 14 mph    
Max Gust Speed 17 mph    
Visibility 10 miles    
Events Snow    
T = Trace of Precipitation, MM = Missing Value Source: NWS Daily Summary

Daily Weather History Graph

Daily Weather History Graph

Search for Another Location

Airport or City:

Trip Planner

Search our weather history database for the weather conditions in past years. The results will help you decide how hot, cold, wet, or windy it might be!

Date:

Astronomy

Nov. 11, 2012 Rise Set
Actual Time 6:19 AM PST 4:27 PM PST
Civil Twilight 5:50 AM PST 4:55 PM PST
Nautical Twilight 5:18 AM PST 5:28 PM PST
Astronomical Twilight 4:46 AM PST 5:59 PM PST
Moon 3:38 AM PST (11/11) 2:53 PM PST (11/11)
Length of Visible Light 11h 05m
Length of Day
10h 08m
Waning Crescent, 6% of the Moon is Illuminated
Nov 11
Waning Crescent
Nov 13
New
Nov 20
First Quarter
Nov 28
Full
Dec 6
Last Quarter

Hourly Weather History & Observations

Time (PST) Temp. Windchill Dew Point Humidity Pressure Visibility Wind Dir Wind Speed Gust Speed Precip Events Conditions
12:53 AM 19.0 °F - 14.0 °F 81% 30.16 in 6.0 mi Calm Calm - 0.00 in Snow Light Snow
1:03 AM 19.4 °F - 14.0 °F 80% 30.07 in 6.0 mi Calm Calm - 0.00 in Snow Light Snow
1:53 AM 19.0 °F 13.9 °F 14.0 °F 81% 30.18 in 10.0 mi NNW 3.5 mph - 0.00 in   Overcast
2:11 AM 19.4 °F 11.5 °F 15.8 °F 86% 30.09 in 7.0 mi WNW 5.8 mph - 0.00 in Snow Light Snow
2:53 AM 19.0 °F 10.0 °F 16.0 °F 88% 30.19 in 6.0 mi West 6.9 mph - 0.00 in Snow Light Snow
3:53 AM 18.0 °F 11.1 °F 14.0 °F 84% 30.23 in 10.0 mi West 4.6 mph - 0.00 in Snow Light Snow
4:53 AM 14.0 °F 3.9 °F 10.0 °F 84% 30.29 in 10.0 mi WNW 6.9 mph - 0.00 in   Mostly Cloudy
5:53 AM 12.9 °F 1.6 °F 8.1 °F 81% 30.33 in 10.0 mi WNW 8.1 mph - N/A   Mostly Cloudy
6:53 AM 15.1 °F 6.4 °F 9.0 °F 77% 30.37 in 10.0 mi NNW 5.8 mph - N/A   Clear
7:53 AM 19.9 °F 11.1 °F 12.0 °F 71% 30.38 in 10.0 mi WNW 6.9 mph - N/A   Scattered Clouds
8:25 AM 21.2 °F 13.6 °F 12.2 °F 68% 30.24 in 10.0 mi NW 5.8 mph - N/A   Overcast
8:41 AM 21.2 °F 14.9 °F 12.2 °F 68% 30.26 in 10.0 mi NNW 4.6 mph - N/A   Scattered Clouds
8:53 AM 23.0 °F 15.8 °F 12.0 °F 63% 30.38 in 10.0 mi North 5.8 mph - N/A   Clear
9:53 AM 24.1 °F 19.7 °F 10.9 °F 57% 30.40 in 10.0 mi Variable 3.5 mph - N/A   Clear
10:53 AM 25.0 °F - 10.9 °F 55% 30.41 in 10.0 mi Calm Calm - N/A   Clear
11:53 AM 25.0 °F - 10.9 °F 55% 30.38 in 10.0 mi Calm Calm - N/A   Clear
12:53 PM 27.0 °F - 12.0 °F 53% 30.38 in 10.0 mi Calm Calm - N/A   Clear
1:53 PM 30.0 °F 26.5 °F 12.0 °F 47% 30.35 in 10.0 mi WNW 3.5 mph - N/A   Clear
2:53 PM 30.0 °F - 10.9 °F 45% 30.37 in 10.0 mi Calm Calm - N/A   Clear
3:53 PM 28.9 °F - 10.9 °F 47% 30.40 in 10.0 mi Calm Calm - N/A   Clear
4:53 PM 15.8 °F - 10.4 °F 79% 30.31 in 10.0 mi Calm Calm - N/A   Clear
5:53 PM 17.1 °F - 12.0 °F 81% 30.51 in 10.0 mi Calm Calm - N/A   Clear
6:53 PM 12.9 °F 1.6 °F 9.0 °F 84% 30.53 in 10.0 mi South 8.1 mph - N/A   Clear
7:53 PM 15.1 °F 1.8 °F 10.0 °F 80% 30.50 in 10.0 mi South 11.5 mph - N/A   Clear
8:53 PM 17.1 °F 5.0 °F 12.0 °F 81% 30.51 in 10.0 mi South 10.4 mph - N/A   Clear
9:53 PM 17.1 °F 7.6 °F 12.0 °F 81% 30.50 in 10.0 mi South 6.9 mph - N/A   Clear
10:53 PM 15.1 °F 3.3 °F 10.9 °F 84% 30.52 in 10.0 mi South 9.2 mph - N/A   Clear
11:53 PM 14.0 °F 0.5 °F 10.0 °F 84% 30.53 in 10.0 mi South 11.5 mph - N/A   Clear